This is the latest recevied weather packets stored in our database for station/object KD7KCN-5. If no packets are shown the sender has not sent any weather packets the latest 10 day(s).
| Time | Temp. | Humidity | Pressure | Rain* | Wind** | Luminosity | Snow |
|---|---|---|---|---|---|---|---|
| 1778033507 | 13.89° C | 31% | 1009.2 hPa | 0 mm | - | 14 W/m² | - |
| 1778032908 | 14.44° C | 30% | 1009 hPa | 0 mm | - | 21 W/m² | - |
| 1778032307 | 14.44° C | 30% | 1009 hPa | 0 mm | - | 30 W/m² | - |
| 1778031710 | 15° C | 31% | 1008.9 hPa | 0 mm | - | 33 W/m² | - |
| 1778031107 | 15.56° C | 30% | 1008.8 hPa | 0 mm | - | 46 W/m² | - |
| 1778030507 | 15.56° C | 29% | 1008.7 hPa | 0 mm | - | 90 W/m² | - |
| 1778029907 | 15.56° C | 30% | 1008.6 hPa | 0 mm | - | 113 W/m² | - |
| 1778029307 | 16.11° C | 29% | 1008.6 hPa | 0 mm | - | 105 W/m² | - |
| 1778028707 | 15.56° C | 30% | 1008.6 hPa | 0 mm | - | 160 W/m² | - |
| 1778028108 | 15.56° C | 31% | 1008.5 hPa | 0 mm | - | 197 W/m² | - |
| 1778027507 | 15.56° C | 31% | 1008.4 hPa | 0 mm | - | 186 W/m² | - |
| 1778026907 | 15.56° C | 30% | 1008.4 hPa | 0 mm | - | 214 W/m² | - |
| 1778026308 | 16.11° C | 30% | 1008.3 hPa | 0 mm | - | 265 W/m² | - |
| 1778025708 | 16.11° C | 30% | 1008.3 hPa | 0 mm | - | 265 W/m² | - |
| 1778025108 | 15.56° C | 30% | 1008.2 hPa | 0 mm | - | 336 W/m² | - |
| 1778024507 | 16.11° C | 30% | 1008.2 hPa | 0 mm | - | 403 W/m² | - |
| 1778023908 | 15° C | 31% | 1008.1 hPa | 0 mm | - | 485 W/m² | - |
| 1778023307 | 15° C | 31% | 1008.3 hPa | 0 mm | - | 162 W/m² | - |
| 1778022710 | 15.56° C | 29% | 1008.2 hPa | 0 mm | - | 72 W/m² | - |
| 1778022107 | 16.11° C | 30% | 1008.3 hPa | 0 mm | - | 431 W/m² | - |
| 1778021507 | 15° C | 30% | 1008.4 hPa | 0 mm | - | 492 W/m² | - |
| 1778020908 | 14.44° C | 31% | 1008.5 hPa | 0 mm | - | 366 W/m² | - |
| 1778020307 | 14.44° C | 31% | 1008.5 hPa | 0 mm | - | 139 W/m² | - |
| 1778019710 | 15.56° C | 29% | 1008.4 hPa | 0 mm | - | 97 W/m² | - |
| 1778019107 | 16.67° C | 29% | 1008.6 hPa | 0 mm | - | 172 W/m² | - |
* Rain latest hour (hover to see other rain measurements)
** Current wind speed in m/s (hover to see current wind gust speed)